Weather in Vezh"yu

Russia / Komi Republic     60°38′57″N   51°08′33″E
temp.,
°C
wind,
m/s
gust,
m/s
humid.,
%
clouds,
%
prec.,
mm/h
press.,
hPa
HPBL,
m
16 may, sun
sun1600:00+14ese2596100 6.7 1012178
03:00+15s31097100 6.7 1012282
06:00+17ssw3138650 0.0 1011480
09:00+22sw510639 0.0 10111103
12:00+24sw610521 0.1 10111946
15:00+24sw5104997 0.1 10101874
18:00+22sw38520 0.0 1009527
21:00+15ssw39852 0.3 1011171
17 may, mon
mon1700:00+14ssw29930 0.0 1010232
03:00+13sw311930 0.0 1011289
06:00+16sw49805 0.0 1012588
09:00+20wsw695853 0.1 10121575
12:00+20wnw5956100 0.5 10131756
15:00+18wnw586269 0.9 10151167
18:00+16wnw476899 0.1 1016867
21:00+13nnw388510 0.1 1019505
18 may, tue
tue1800:00+12n3783100 0.0 1020508
03:00+9nne259653 0.1 1022135
06:00+11ne24747 0.0 1023465
09:00+16ne234920 0.0 1023890
12:00+20ene223788 0.0 10231212
15:00+22ese123344 0.0 10221411
18:00+20ese12465 0.0 102255
21:00+14se236411 0.0 102343
19 may, wed
wed1900:00+12se257299 0.0 102384
03:00+10sse267624 0.0 1023107
06:00+15s376292 0.0 1023259
09:00+21s354550 0.0 1022909
12:00+24ssw453799 0.0 10211439
15:00+25ssw453396 0.0 10201609
18:00+22s2747100 0.0 1019235
21:00+17s286599 0.0 1019147
20 may, thu
thu2000:00+14ssw257253 0.0 101996
03:00+12s26765 0.0 1019108
06:00+17ssw35590 0.0 1019241
09:00+23ssw35414 0.0 10181005
12:00+27ssw45325 0.0 10161891
15:00+27ssw45281 0.0 10152246
18:00+25s37380 0.0 1015363
21:00+17s310605 0.0 1015171